TimeCST,TemperatureF,Dew PointF,Humidity,Sea Level PressureIn,VisibilityMPH,Wind Direction,Wind SpeedMPH,Gust SpeedMPH,PrecipitationIn,Events,Conditions,WindDirDegrees,DateUTC
12:53 AM,23.0,16.0,74,30.20,10.0,West,8.1,-,N/A,,Clear,260,2012-11-12 06:53:00
1:53 AM,21.9,16.0,78,30.21,10.0,West,9.2,-,N/A,,Clear,260,2012-11-12 07:53:00
2:53 AM,21.9,16.0,78,30.22,10.0,West,8.1,-,N/A,,Clear,260,2012-11-12 08:53:00
3:53 AM,21.9,16.0,78,30.23,10.0,WSW,9.2,-,N/A,,Clear,240,2012-11-12 09:53:00
4:53 AM,21.9,15.1,75,30.24,10.0,WSW,10.4,-,N/A,,Clear,250,2012-11-12 10:53:00
6:53 AM,21.9,15.1,75,30.26,10.0,WSW,11.5,-,N/A,,Clear,240,2012-11-12 12:53:00
7:53 AM,23.0,16.0,74,30.28,10.0,WSW,11.5,-,N/A,,Clear,240,2012-11-12 13:53:00
8:53 AM,27.0,18.0,69,30.30,10.0,West,13.8,-,N/A,,Clear,260,2012-11-12 14:53:00
9:53 AM,30.0,19.0,64,30.30,10.0,West,17.3,-,N/A,,Clear,260,2012-11-12 15:53:00
10:53 AM,33.1,19.9,59,30.30,10.0,West,12.7,24.2,N/A,,Clear,260,2012-11-12 16:53:00
11:53 AM,36.0,19.9,52,30.29,10.0,West,23.0,31.1,N/A,,Clear,270,2012-11-12 17:53:00
12:53 PM,37.0,19.9,50,30.29,10.0,WNW,23.0,29.9,N/A,,Clear,290,2012-11-12 18:53:00
1:53 PM,37.9,19.9,48,30.30,10.0,WNW,20.7,28.8,N/A,,Partly Cloudy,290,2012-11-12 19:53:00
2:53 PM,39.0,19.9,46,30.30,10.0,West,17.3,-,N/A,,Clear,280,2012-11-12 20:53:00
3:53 PM,37.9,19.9,48,30.32,10.0,West,18.4,25.3,N/A,,Clear,280,2012-11-12 21:53:00
4:53 PM,34.0,21.0,59,30.35,10.0,West,9.2,-,N/A,,Clear,280,2012-11-12 22:53:00
5:53 PM,30.9,21.0,67,30.37,10.0,West,6.9,-,N/A,,Clear,270,2012-11-12 23:53:00
6:53 PM,30.0,19.9,66,30.38,10.0,West,6.9,-,N/A,,Clear,260,2012-11-13 00:53:00
7:53 PM,28.0,19.9,72,30.40,10.0,WSW,5.8,-,N/A,,Clear,250,2012-11-13 01:53:00
8:53 PM,28.9,19.0,67,30.41,10.0,WSW,6.9,-,N/A,,Clear,250,2012-11-13 02:53:00
9:53 PM,28.9,18.0,64,30.43,10.0,SW,3.5,-,N/A,,Clear,230,2012-11-13 03:53:00
10:53 PM,28.9,18.0,64,30.43,10.0,WSW,4.6,-,N/A,,Clear,250,2012-11-13 04:53:00
11:53 PM,28.0,18.0,66,30.43,10.0,West,4.6,-,N/A,,Clear,260,2012-11-13 05:53:00